This is the latest recevied weather packets stored in our database for station/object WI5ARD. If no packets are shown the sender has not sent any weather packets the latest 10 day(s).
| Time | Temp. | Humidity | Pressure | Rain* | Wind** | Luminosity | Snow |
|---|---|---|---|---|---|---|---|
| 1778063719 | 21.67° C | 94% | 1013.3 hPa | 0 mm | - | 0 W/m² | - |
| 1778057721 | 22.22° C | 93% | 1013.1 hPa | 0 mm | - | 0 W/m² | - |
| 1778052636 | 21.67° C | 94% | 1013.4 hPa | 0 mm | - | 0 W/m² | - |
| 1778049620 | 21.67° C | 94% | 1013.7 hPa | 0 mm | - | 0 W/m² | - |
| 1778047521 | 21.67° C | 94% | 1013.7 hPa | 0 mm | - | 0 W/m² | - |
| 1778046920 | 21.67° C | 94% | 1013.7 hPa | 0 mm | - | 0 W/m² | - |
| 1778046021 | 21.67° C | 94% | 1014 hPa | 0 mm | - | 0 W/m² | - |
| 1778045447 | 21.67° C | 94% | 1014 hPa | 0 mm | - | 0 W/m² | - |
| 1778043019 | 21.11° C | 93% | 1013.9 hPa | 0 mm | - | 0 W/m² | - |
| 1778042750 | 21.11° C | 93% | 1014 hPa | 0 mm | - | 0 W/m² | - |
| 1778040045 | 21.67° C | 92% | 1014.1 hPa | 0 mm | - | 0 W/m² | - |
| 1778039136 | 21.67° C | 92% | 1014.1 hPa | 0 mm | - | 0 W/m² | - |
| 1778037353 | 21.67° C | 90% | 1014 hPa | 0 mm | - | 0 W/m² | - |
| 1778036720 | 21.67° C | 90% | 1014 hPa | 0 mm | - | 0 W/m² | - |
| 1778035819 | 22.22° C | 89% | 1013.9 hPa | 0 mm | - | 0 W/m² | - |
| 1778035541 | 22.22° C | 89% | 1013.8 hPa | 0 mm | - | 0 W/m² | - |
| 1778035219 | 22.22° C | 88% | 1013.9 hPa | 0 mm | - | 0 W/m² | - |
| 1778034920 | 22.22° C | 88% | 1013.8 hPa | 0 mm | - | 0 W/m² | - |
| 1778033737 | 22.78° C | 87% | 1013.8 hPa | 0 mm | - | 0 W/m² | - |
| 1778033419 | 22.78° C | 87% | 1013.7 hPa | 0 mm | - | 0 W/m² | - |
| 1778029819 | 23.33° C | 84% | 1013.2 hPa | 0 mm | - | 0 W/m² | - |
| 1778029519 | 23.89° C | 83% | 1013.2 hPa | 0 mm | - | 0 W/m² | - |
| 1778028364 | 23.89° C | 82% | 1013.1 hPa | 0 mm | - | 0 W/m² | - |
| 1778028020 | 23.89° C | 82% | 1013.1 hPa | 0 mm | - | 0 W/m² | - |
| 1778027437 | 24.44° C | 81% | 1013 hPa | 0 mm | - | 7 W/m² | - |
* Rain latest hour (hover to see other rain measurements)
** Current wind speed in m/s (hover to see current wind gust speed)